Theta_e
325 324 324 327 328 328 325 329 332 331 329 330 329 327 327 330 328 329 335 335 340 337 342 344 338 344 348 348 347 347 346 345 344 340 339 340 340 337 338 336 336 336 331 329
325 325 326 329 327 326 326 330 330 328 328 325 325 325 331 333 334 335 335 344 344 343 338 341 340 342 341 343 346 345 346 345 345 341 341 342 342 340 339 339 334 332 330 330
325 327 329 329 328 325 329 328 327 327 325 325 329 334 336 335 338 335 337 339 347 346 346 337 338 333 340 329 325 326 343 344 345 344 343 342 342 342 337 331 332 330 329 327
325 327 327 326 328 328 326 326 325 326 328 327 331 337 338 336 334 336 334 331 343 343 337 337 332 334 336 329 329 329 344 345 344 344 342 343 340 338 332 327 327 325 324 323
326 327 326 328 329 329 331 330 330 330 328 331 334 337 338 336 335 334 333 332 331 341 342 341 338 336 331 329 337 341 331 345 345 344 343 340 340 334 330 327 325 324 324 322
326 328 328 327 327 329 331 332 332 332 329 336 333 337 335 328 332 335 333 327 324 332 332 332 334 334 332 331 332 331 337 342 344 341 340 342 339 334 329 328 327 324 322 322
328 329 327 327 326 329 331 332 332 332 339 339 333 335 332 331 329 328 326 326 327 332 332 331 330 332 333 331 326 339 340 343 342 336 337 338 334 330 326 325 324 322 322 319
336 332 332 329 328 329 333 333 335 338 340 332 333 337 332 331 328 327 327 327 329 331 331 331 332 331 329 325 331 334 340 338 339 334 335 331 329 325 323 323 322 320 319 318
337 338 334 330 332 332 336 334 331 335 336 334 334 333 331 331 330 329 328 329 327 328 331 331 331 329 329 327 327 331 329 329 331 331 329 325 323 322 323 322 320 318 316 315
334 339 334 335 335 333 334 334 337 332 334 334 334 333 331 328 332 329 329 328 326 326 328 330 330 331 330 330 328 328 326 324 324 324 323 322 323 323 320 319 317 316 313 312
332 335 337 337 336 336 338 339 335 333 329 330 333 335 329 330 331 329 330 328 326 326 325 325 328 330 328 326 326 327 326 325 324 324 323 322 319 317 316 315 314 312 311 310
339 337 338 338 336 333 332 336 335 336 335 333 334 330 329 329 329 330 332 330 331 325 325 324 327 330 328 327 325 326 325 324 323 322 318 318 316 316 314 312 311 311 310 309
340 336 338 338 340 335 336 333 333 333 336 336 336 337 333 331 331 330 331 332 333 327 324 324 326 326 328 325 326 325 324 323 322 318 318 316 314 311 311 311 311 310 309 309
338 335 337 339 337 336 340 336 333 335 337 333 332 333 334 333 333 332 332 334 329 327 326 324 322 323 326 323 326 325 324 322 320 318 316 314 311 311 310 311 310 309 309 310
340 340 339 335 331 333 337 333 333 337 335 331 331 335 335 333 332 331 332 326 326 327 324 322 320 324 324 324 326 324 323 321 319 317 314 312 312 311 311 311 310 310 309 310
337 341 340 341 336 335 334 332 332 333 332 331 331 334 330 330 328 332 327 325 326 327 324 321 320 326 325 325 324 324 321 318 317 315 313 313 311 311 310 310 310 310 311 310
342 340 339 340 335 336 335 333 333 334 333 332 333 332 332 332 331 329 329 326 328 324 323 319 319 325 325 325 324 320 318 317 316 314 312 312 311 310 311 310 311 311 312 312
338 339 337 338 337 337 341 336 335 335 335 335 335 336 334 331 329 329 328 328 325 324 321 318 322 325 325 325 321 319 318 317 315 313 312 311 311 311 311 310 311 311 312 312
331 338 341 342 338 337 338 338 336 333 339 335 334 333 334 333 330 332 329 326 324 322 320 320 325 325 324 323 320 319 317 316 315 313 311 311 311 312 311 311 311 311 312 312
338 336 337 337 339 344 338 338 336 335 340 335 335 336 333 331 333 331 326 325 324 321 320 321 326 324 323 321 319 318 317 316 314 313 311 310 310 311 311 311 312 311 312 312
342 338 337 335 341 341 336 335 334 339 336 334 335 334 331 331 330 328 325 324 322 320 320 321 325 323 322 321 318 318 317 315 313 312 310 310 310 310 311 312 311 311 312 311
343 340 336 335 337 339 334 334 339 339 333 332 334 333 331 329 328 324 324 323 321 320 320 321 324 323 320 319 318 317 316 314 312 311 310 310 312 311 311 311 312 310 311 311
342 337 337 335 333 330 331 330 334 330 332 336 331 328 328 327 325 324 324 322 322 320 321 321 324 321 319 318 317 317 316 313 314 312 311 311 309 311 310 311 311 311 311 311
334 334 332 328 329 332 332 330 334 331 333 333 330 327 325 325 323 324 322 321 320 318 322 321 322 323 319 318 317 317 315 314 315 313 312 311 309 309 311 308 310 307 307 309
330 330 330 330 328 329 332 332 334 331 329 330 328 326 325 323 323 322 320 319 318 319 322 321 322 321 318 317 317 315 314 313 313 311 310 309 309 310 311 310 306 306 306 306
329 327 329 331 328 328 331 332 332 331 329 327 327 325 326 323 322 320 320 318 321 322 322 321 321 320 318 316 317 316 313 313 312 312 310 310 310 311 311 310 311 309 307 306
Wind_Speed
8 2 7 8 7 8 8 9 13 12 4 2 5 5 9 7 10 10 7 7 10 13 19 35 23 11 21 17 14 10 5 7 6 7 6 9 12 12 11 5 3 7 9 12
6 9 14 2 4 2 6 8 6 7 10 7 8 9 13 16 8 8 10 14 15 12 14 12 10 12 30 34 29 10 8 9 10 10 7 3 3 5 9 5 4 8 10 10
8 14 5 3 5 6 6 7 6 5 7 8 4 14 9 7 10 12 6 5 17 20 14 7 13 15 19 38 14 26 26 16 12 8 6 3 4 5 5 3 2 1 2 7
9 4 4 8 2 6 6 7 7 8 5 4 11 2 7 4 7 4 9 7 12 7 7 8 14 16 17 21 10 21 22 15 8 8 4 6 4 6 7 9 8 10 12 9
10 3 2 7 6 6 3 8 7 7 7 6 8 6 7 2 5 4 7 9 11 13 16 11 15 24 20 12 5 3 22 8 7 9 8 5 3 5 8 11 12 13 10 10
5 3 5 5 7 5 4 8 11 6 5 4 7 5 5 4 2 3 9 7 11 10 15 21 23 24 22 23 18 20 18 17 15 9 8 5 4 2 8 11 11 15 17 18
7 2 5 7 6 7 11 8 5 7 4 4 6 8 7 5 4 6 9 11 13 17 15 14 11 15 11 5 3 5 14 16 10 5 11 9 5 5 9 10 12 17 15 16
7 4 9 4 4 6 6 6 4 2 1 3 5 1 4 7 8 10 9 13 18 13 12 8 11 19 15 6 3 3 2 10 7 8 6 9 10 11 10 11 13 15 17 16
5 6 6 4 19 8 6 7 6 2 4 5 4 5 6 6 7 8 11 12 9 7 8 8 9 8 3 4 6 11 16 20 16 15 16 15 15 14 13 12 14 14 13 16
7 4 11 5 8 11 9 4 6 4 2 2 3 4 2 8 7 9 9 9 9 14 12 9 14 19 18 21 27 29 28 26 20 17 15 15 14 14 15 14 14 15 20 22
2 4 7 11 7 6 6 3 3 2 4 2 2 2 6 2 9 12 21 22 15 14 15 10 17 24 27 28 26 24 25 25 21 15 17 17 18 17 17 19 21 24 22 21
5 4 6 3 6 5 3 6 3 4 4 2 3 4 6 13 12 17 20 21 22 8 7 8 17 19 23 23 23 25 24 25 24 21 22 20 21 22 23 25 25 24 23 21
2 4 4 6 5 6 3 2 4 3 2 1 2 1 2 17 20 17 16 7 5 12 9 10 20 19 17 23 24 25 26 26 24 24 22 25 24 25 24 24 22 23 23 19
6 2 3 4 6 2 14 5 5 7 4 4 2 5 9 13 13 11 14 5 5 8 9 8 11 15 22 25 22 23 23 23 23 22 23 23 23 22 23 22 24 23 20 20
4 1 1 4 4 6 11 3 4 8 12 2 3 9 4 7 9 9 6 6 7 7 10 9 9 13 23 23 20 19 18 19 18 19 22 22 19 21 21 22 22 22 20 19
2 2 5 3 8 1 2 5 5 5 8 7 10 8 10 9 6 3 6 7 8 8 7 9 11 16 19 22 20 16 19 19 20 19 21 19 19 19 21 22 21 19 20 19
4 2 3 3 8 1 6 2 4 8 8 7 6 4 13 9 8 5 5 7 4 7 10 10 10 17 19 20 21 20 20 18 20 21 20 18 17 19 19 17 19 20 19 18
2 3 1 2 6 4 4 10 8 12 10 11 17 14 12 9 6 5 4 5 7 8 9 9 14 16 17 18 16 17 18 18 19 19 17 17 17 18 18 17 18 21 18 17
5 3 2 0 3 6 9 7 3 4 6 7 8 6 7 9 6 5 4 5 8 9 12 15 15 16 17 15 15 17 16 18 17 15 14 16 15 17 15 17 18 18 17 14
8 6 4 4 3 3 3 7 5 1 3 7 8 8 9 8 5 1 5 10 12 16 16 16 16 17 17 15 16 17 16 17 16 12 13 17 13 13 15 15 15 15 14 11
4 4 3 2 3 3 5 11 1 1 6 2 7 8 9 7 5 4 9 11 17 16 16 16 16 16 17 17 15 15 15 14 12 12 13 12 13 13 15 15 14 14 13 12
5 4 2 3 3 3 10 6 3 4 4 4 6 7 7 7 7 8 8 8 14 14 14 15 14 14 13 13 13 13 13 11 10 9 12 11 11 14 16 14 13 15 16 15
3 6 6 5 5 5 7 9 7 6 2 5 7 7 8 8 8 9 7 10 13 14 11 13 13 13 13 12 11 12 9 11 9 9 8 8 10 11 14 13 12 12 14 16
6 2 3 6 2 8 8 6 9 7 9 8 7 9 9 9 9 9 7 11 13 13 10 12 9 10 13 13 11 12 10 9 9 9 8 7 11 12 11 12 12 13 13 12
4 3 4 3 7 8 9 9 9 9 8 9 12 12 9 10 8 9 6 10 10 10 12 13 12 13 13 13 13 11 11 10 12 7 9 10 11 13 7 8 12 11 11 10
2 4 3 4 4 6 3 6 9 8 8 8 9 7 14 18 10 14 9 8 8 10 11 10 8 12 11 11 11 9 11 9 10 9 11 12 12 10 7 5 5 7 8 9
Wind_Direction
275 318 245 225 232 235 331 55 149 217 240 14 300 296 359 97 59 64 189 186 109 140 165 184 248 350 132 142 131 101 141 211 244 208 231 259 211 251 276 277 229 210 200 213
310 251 255 89 352 276 337 34 23 354 342 352 311 287 62 52 28 54 20 97 137 141 182 194 87 81 35 19 71 6 275 243 242 218 245 236 187 283 292 283 216 208 222 270
225 248 235 331 300 312 54 47 354 330 323 329 33 35 32 11 42 41 347 123 147 173 166 156 134 158 91 84 62 293 262 233 229 244 258 277 285 291 343 353 231 142 269 275
246 171 56 283 316 62 53 5 347 325 11 269 45 209 7 51 53 21 280 288 200 165 146 169 160 114 126 128 251 216 238 236 223 237 254 311 295 331 37 51 39 4 353 18
268 111 173 54 59 36 354 352 303 279 265 73 354 68 304 61 313 329 272 309 273 141 170 176 85 102 136 138 213 251 303 226 209 211 248 248 326 13 7 351 348 352 15 27
294 2 63 55 5 67 346 1 329 352 65 45 318 108 279 11 312 257 254 284 9 147 86 94 117 134 134 131 149 202 226 226 218 228 256 245 282 330 11 4 28 9 352 346
314 288 95 61 4 30 49 41 349 16 31 239 10 57 231 268 19 29 41 44 64 88 106 103 121 114 113 166 146 139 210 212 211 248 257 254 165 77 52 38 6 358 0 355
35 28 4 84 57 73 33 84 125 326 15 242 354 6 259 237 339 23 33 43 69 93 116 125 132 129 142 175 179 13 124 280 201 275 159 101 92 66 47 13 21 10 359 345
54 294 322 41 66 42 348 36 276 34 327 70 307 315 342 326 32 36 38 49 52 92 107 135 151 153 222 247 356 14 44 46 44 79 75 60 44 31 29 24 6 351 358 359
215 74 284 340 61 57 104 193 9 4 44 7 246 84 318 350 357 37 41 36 44 59 79 65 60 38 37 60 52 61 64 63 57 54 52 51 48 48 23 18 19 15 0 351
39 90 15 51 21 350 13 2 275 175 123 175 5 272 226 4 38 47 35 47 34 44 48 61 70 75 58 57 59 59 57 53 45 62 62 60 40 32 27 25 13 3 0 356
351 112 60 130 245 198 198 198 166 121 311 356 145 272 1 72 48 52 51 40 4 354 41 47 56 77 63 52 55 64 62 51 53 70 48 52 45 37 24 12 8 3 1 0
354 356 105 334 352 355 324 178 113 127 27 258 226 182 319 69 71 73 79 60 317 289 38 37 39 41 53 45 64 61 57 52 49 46 59 51 39 26 20 14 11 5 1 359
88 44 147 158 204 179 357 230 147 87 306 242 188 115 41 84 84 85 96 147 237 48 48 54 42 27 42 39 61 66 59 50 43 54 51 36 30 27 22 21 14 13 7 7
85 156 359 186 203 163 192 54 155 176 218 129 34 91 60 106 120 125 158 72 53 41 49 44 38 45 35 37 51 63 59 57 48 56 37 32 33 25 23 19 9 8 15 18
61 269 358 254 259 6 203 1 271 4 59 51 64 77 158 142 133 112 62 43 31 49 43 48 37 52 37 41 36 57 66 57 62 55 35 30 30 22 21 16 16 13 14 20
141 81 36 293 341 16 1 254 64 73 58 72 57 181 135 98 92 86 17 30 29 46 49 38 31 56 45 40 49 67 61 61 59 47 35 41 30 21 19 14 10 10 8 11
71 34 40 273 353 333 184 45 46 79 59 67 74 82 110 142 153 101 57 73 52 45 49 27 54 61 48 50 54 61 56 63 52 44 42 31 28 18 20 20 16 13 23 27
123 88 6 188 253 148 22 356 7 66 35 78 91 123 147 121 102 74 92 85 70 71 51 36 77 68 56 58 56 58 57 58 48 42 47 30 21 19 19 14 13 13 20 29
64 65 108 27 37 41 272 302 262 60 9 42 71 75 73 58 62 327 83 80 72 68 56 49 92 69 61 63 54 54 61 58 46 44 40 15 22 13 14 17 13 14 15 24
37 32 98 81 83 284 228 258 28 71 236 351 107 111 100 101 158 157 79 73 74 60 58 50 94 81 79 61 54 65 68 66 51 34 18 21 24 17 6 16 22 26 29 34
155 136 163 91 97 262 233 260 101 201 332 326 100 120 116 115 92 82 81 72 68 52 63 49 108 96 80 45 39 66 77 62 44 33 31 25 23 15 14 23 28 38 47 50
114 191 164 165 196 197 137 157 166 151 140 90 88 70 92 88 75 79 77 58 62 41 72 55 91 106 83 55 60 85 75 35 27 25 9 12 17 16 23 31 40 35 45 41
32 111 97 70 85 154 168 161 154 144 120 123 115 92 87 81 78 79 66 52 44 24 74 56 71 104 98 78 81 90 49 36 29 20 26 7 18 18 19 39 40 37 43 43
197 115 162 118 16 75 78 98 118 109 105 108 100 103 96 88 79 86 66 56 27 20 69 55 53 107 98 84 96 77 48 37 37 59 27 21 24 20 24 31 37 37 36 36
38 171 111 190 149 121 29 138 135 137 150 151 131 112 93 96 93 78 60 50 24 59 49 52 71 107 90 97 107 80 54 39 43 37 18 17 22 13 22 25 352 10 21 30